Regional Weather Roundup
Issued by NWS

Home | Current Version | Previous Version | Text Only | Print | Product List | Glossary Off
Versions: 1 2 3 4 5 6 7 8 9 10 11 12 13 14 15 16 17 18 19 20 21 22 23 24 25 26 27 28 29 30 31 32 33 34 35 36 37 38 39 40 41 42 43 44 45 46 47 48 49 50

000
ASUS43 KLOT 180558
RWRIL

ILLINOIS REGIONAL WEATHER ROUNDUP
NATIONAL WEATHER SERVICE CHICAGO/ROMEOVILLE IL
100 AM CDT THU SEP 18 2014

NOTE: "FAIR" INDICATES FEW OR NO CLOUDS BELOW 12,000 FEET WITH NO
SIGNIFICANT WEATHER AND/OR OBSTRUCTIONS TO VISIBILITY.

* THESE STATIONS ARE NOT UNDER NWS QUALITY CONTROL. THEY ALSO MAY NOT
  REPORT WEATHER SUCH AS PRECIPITATION OR FOG.

ILZ001-002-007-009-015-016-024-180700-
NORTHWEST ILLINOIS

CITY           SKY/WX    TMP DP  RH WIND       PRES   REMARKS
MOLINE         CLEAR     49  48  97 CALM      30.04R
6HR MIN TEMP:  49; 6HR MAX TEMP:  63;

$$

ILZ003-004-008-010-011-017-018-180700-
NORTH CENTRAL ILLINOIS

CITY           SKY/WX    TMP DP  RH WIND       PRES   REMARKS
ROCKFORD       NOT AVBL
$$

ILZ005-006-012>014-019>023-180700-
NORTHEAST ILLINOIS

CITY           SKY/WX    TMP DP  RH WIND       PRES   REMARKS
CHICAGO-OHARE  CLEAR     56  48  74 CALM      30.04R
6HR MIN TEMP:  56; 6HR MAX TEMP:  66;

CHICAGO-MIDWAY CLEAR     59  51  75 CALM      30.04R
6HR MIN TEMP:  58; 6HR MAX TEMP:  65;

AURORA         CLEAR     48  44  86 CALM      30.05R
6HR MIN TEMP:  47; 6HR MAX TEMP:  65;

WAUKEGAN       CLEAR     47  45  93 CALM      30.04R FOG
6HR MIN TEMP:  47; 6HR MAX TEMP:  59;

DUPAGE AIRPORT CLEAR     51  47  86 CALM      30.04S
6HR MIN TEMP:  50; 6HR MAX TEMP:  65;

WHEELING       CLEAR     52  48  86 CALM      30.06R
6HR MIN TEMP:  52; 6HR MAX TEMP:  63;

NORTHERLY ISL    N/A     60  52  74 S2          N/A
$$

LMZ740>746-180700-
SOUTHERN LAKE MICHIGAN

STATION/POSITION SKY/WX   TEMP    WIND        PRES    VSBY  WAVE
                          AIR SEA DIR/SP/G                  HT/PER
                          (F)     (DEG/KT/KT) (MB)    (MI)  (FT/S)
SOUTHERN BUOY              63 65  190/  6/  6 1017.1S         0
WAUKEGAN HARBOR            57     250/  3/  4   N/A
HARRISON CRIB              62     180/  4/  5   N/A
BURNHAM HARBOR             60     180/  2       N/A
CALUMET HARBOR             58     210/  1/  2 1016.0R
MICHIGAN CITY              55     100/  7/  8   N/A
MICHIGAN CITY 6N           59 64  120/  4/  6   N/A           0
ST. JOSEPH                 62 67  110/  4/  6   N/A           0
$$

ILZ025>027-034>036-040-047-049-050-058-095>099-180700-
WEST-CENTRAL ILLINOIS

CITY           SKY/WX    TMP DP  RH WIND       PRES   REMARKS
QUINCY         FOG       54  52  94 E5        30.02R VSB 1
$$

ILZ028>032-037-038-041>044-048-051>054-059>061-180700-
CENTRAL ILLINOIS

CITY           SKY/WX    TMP DP  RH WIND       PRES   REMARKS
PEORIA         NOT AVBL
SPRINGFIELD    CLEAR     51  49  92 CALM      30.03S
6HR MIN TEMP:  51; 6HR MAX TEMP:  62;

TAYLORVILLE    NOT AVBL
$$

ILZ033-039-045-046-055>057-062-063-180700-
EAST-CENTRAL ILLINOIS

CITY           SKY/WX    TMP DP  RH WIND       PRES   REMARKS
$$

ILZ079-100>102-180700-
SOUTHWEST ILLINOIS

CITY           SKY/WX    TMP DP  RH WIND       PRES   REMARKS
CAHOKIA*       CLOUDY    62  57  83 E3        30.00S
$$

ILZ064>066-069>071-074>076-080>082-084>086-088>090-092>094-180700-
SOUTH-CENTRAL ILLINOIS

CITY           SKY/WX    TMP DP  RH WIND       PRES   REMARKS
CARBONDALE     CLOUDY    62  59  90 CALM      29.99F
6HR MIN TEMP:  59; 6HR MAX TEMP:  65;

$$

ILZ067-068-072-073-078-083-087-091-180700-
SOUTHEAST ILLINOIS

CITY           SKY/WX    TMP DP  RH WIND       PRES   REMARKS
$$

ABBREVIATIONS USED IN REMARKS
   TC - TEMPERATURE IN CELSIUS
  WCI - WIND CHILL INDEX
   HX - HEAT INDEX
  VSB - VISIBILITY
$$




USA.gov is the U.S. government's official web portal to all federal, state and local government web resources and services.